DLH6767 EDDM-EPKK

Flight info

Callsign DLH6767
Flight time N/A
Altitude 33000
Route BIBAG4N BIBAG Y133 BEPAS DCT NELPA DCT PADKA PADKA4G
Aircraft A319/M-SDE3FGHIRWY/LB1

Departure

Time N/A
Airport Munich Airport (EDDM)

Arrival

Time 2026-05-05 11:50
Airport Kraków John Paul II International Airport (EPKK)
Time Latitude Longitude Altitude Speed Heading
2026-05-05 10:54 48.93807 13.65562 32826 ft 464 kts 68°
2026-05-05 10:54 48.95031 13.70059 32821 ft 459 kts 68°
2026-05-05 10:55 48.97473 13.79072 32818 ft 457 kts 68°
2026-05-05 10:55 48.99877 13.87999 32826 ft 457 kts 68°
2026-05-05 10:56 49.02288 13.96983 32818 ft 457 kts 68°
2026-05-05 10:56 49.04667 14.05903 32814 ft 456 kts 68°
2026-05-05 10:57 49.07064 14.14889 32812 ft 456 kts 68°
2026-05-05 10:57 49.09453 14.23873 32807 ft 456 kts 68°
2026-05-05 10:58 49.11823 14.32832 32810 ft 456 kts 68°
2026-05-05 10:58 49.14176 14.41779 32810 ft 455 kts 69°
2026-05-05 10:59 49.16543 14.50806 32807 ft 455 kts 69°
2026-05-05 10:59 49.18890 14.59811 32808 ft 455 kts 69°
2026-05-05 11:00 49.21214 14.68773 32813 ft 454 kts 69°
2026-05-05 11:00 49.23531 14.77728 32809 ft 454 kts 69°
2026-05-05 11:01 49.25856 14.86728 32806 ft 453 kts 69°
2026-05-05 11:01 49.28154 14.95676 32806 ft 453 kts 69°
2026-05-05 11:02 49.30215 15.04744 32808 ft 453 kts 72°
2026-05-05 11:02 49.32099 15.14006 32816 ft 453 kts 73°
2026-05-05 11:03 49.33966 15.23203 32822 ft 453 kts 73°
2026-05-05 11:03 49.35882 15.32355 32823 ft 453 kts 72°
2026-05-05 11:04 49.37827 15.41551 32829 ft 452 kts 72°
2026-05-05 11:04 49.39755 15.50760 32835 ft 452 kts 72°
2026-05-05 11:05 49.41647 15.59895 32835 ft 451 kts 72°
2026-05-05 11:05 49.43538 15.69112 32837 ft 451 kts 73°
2026-05-05 11:06 49.45416 15.78280 32841 ft 451 kts 73°
2026-05-05 11:06 49.47286 15.87443 32846 ft 450 kts 73°
2026-05-05 11:07 49.49165 15.96686 32845 ft 450 kts 73°
2026-05-05 11:07 49.51013 16.05830 32851 ft 450 kts 73°
2026-05-05 11:08 49.52866 16.15030 32845 ft 450 kts 73°
2026-05-05 11:08 49.54705 16.24221 32847 ft 450 kts 73°
2026-05-05 11:09 49.56540 16.33408 32843 ft 450 kts 73°
2026-05-05 11:09 49.58378 16.42648 32843 ft 450 kts 73°
2026-05-05 11:10 49.60203 16.51866 32849 ft 450 kts 73°
2026-05-05 11:10 49.62002 16.61044 32846 ft 449 kts 74°
2026-05-05 11:11 49.63810 16.70279 32846 ft 449 kts 74°
2026-05-05 11:11 49.65615 16.79555 32856 ft 449 kts 74°
2026-05-05 11:12 49.67393 16.88744 32851 ft 449 kts 74°
2026-05-05 11:12 49.69179 16.97982 32851 ft 449 kts 74°
2026-05-05 11:13 49.70963 17.07277 32855 ft 450 kts 74°
2026-05-05 11:13 49.72726 17.16564 32861 ft 450 kts 75°
2026-05-05 11:14 49.74485 17.25849 32520 ft 453 kts 75°
2026-05-05 11:14 49.75361 17.30468 32000 ft 452 kts 75°
2026-05-05 11:14 49.76251 17.35159 31482 ft 451 kts 75°
2026-05-05 11:14 49.77121 17.39760 30979 ft 448 kts 75°
2026-05-05 11:15 49.77994 17.44396 30478 ft 445 kts 75°
2026-05-05 11:15 49.78851 17.48965 29984 ft 442 kts 75°
2026-05-05 11:15 49.79705 17.53535 29426 ft 440 kts 75°
2026-05-05 11:15 49.80555 17.58093 28866 ft 436 kts 75°
2026-05-05 11:16 49.81390 17.62575 28313 ft 433 kts 75°
2026-05-05 11:16 49.82213 17.66992 27781 ft 430 kts 75°
2026-05-05 11:16 49.83039 17.71435 27255 ft 427 kts 75°
2026-05-05 11:16 49.83857 17.75863 26730 ft 424 kts 75°
2026-05-05 11:17 49.84668 17.80260 26217 ft 421 kts 75°
2026-05-05 11:17 49.85467 17.84624 25726 ft 419 kts 76°
2026-05-05 11:17 49.86253 17.88930 25224 ft 417 kts 75°
2026-05-05 11:17 49.87038 17.93241 24905 ft 412 kts 75°
2026-05-05 11:18 49.87817 17.97520 24849 ft 412 kts 75°
2026-05-05 11:18 49.88587 18.01750 24863 ft 412 kts 75°
2026-05-05 11:18 49.89368 18.06040 24865 ft 412 kts 76°
2026-05-05 11:18 49.90136 18.10283 24862 ft 412 kts 76°
2026-05-05 11:19 49.90617 18.14654 24863 ft 410 kts 85°
2026-05-05 11:19 49.90940 18.19077 24860 ft 410 kts 85°
2026-05-05 11:19 49.91261 18.23437 24859 ft 410 kts 85°
2026-05-05 11:19 49.91583 18.27836 24858 ft 411 kts 85°
2026-05-05 11:20 49.91904 18.32269 24861 ft 410 kts 85°
2026-05-05 11:20 49.92216 18.36630 24857 ft 410 kts 85°
2026-05-05 11:20 49.92532 18.41059 24863 ft 411 kts 85°
2026-05-05 11:20 49.92844 18.45467 24861 ft 410 kts 85°
2026-05-05 11:21 49.93152 18.49831 24866 ft 411 kts 85°
2026-05-05 11:21 49.93460 18.54245 24860 ft 411 kts 85°
2026-05-05 11:21 49.93765 18.58670 24861 ft 411 kts 85°
2026-05-05 11:21 49.94070 18.63090 24863 ft 411 kts 85°
2026-05-05 11:22 49.94373 18.67508 24863 ft 412 kts 85°
2026-05-05 11:22 49.94670 18.71881 24863 ft 412 kts 85°
2026-05-05 11:22 49.94971 18.76329 24865 ft 412 kts 85°
2026-05-05 11:22 49.95270 18.80725 24214 ft 415 kts 85°
2026-05-05 11:23 49.95576 18.85250 23422 ft 419 kts 85°
2026-05-05 11:23 49.95874 18.89658 22958 ft 411 kts 85°
2026-05-05 11:23 49.96169 18.94068 22469 ft 407 kts 86°
2026-05-05 11:23 49.96459 18.98450 21980 ft 405 kts 86°
2026-05-05 11:24 49.96742 19.02752 21493 ft 404 kts 86°
2026-05-05 11:24 49.97028 19.07098 21000 ft 402 kts 86°
2026-05-05 11:24 49.97311 19.11431 20501 ft 401 kts 86°
2026-05-05 11:24 49.97584 19.15684 20006 ft 399 kts 87°
2026-05-05 11:25 49.97858 19.19989 19504 ft 399 kts 87°
2026-05-05 11:25 49.98127 19.24233 19005 ft 398 kts 87°
2026-05-05 11:25 49.98311 19.27129 18659 ft 398 kts 87°
2026-05-05 11:25 49.98670 19.32771 18051 ft 395 kts 88°
2026-05-05 11:26 49.98937 19.37014 17515 ft 390 kts 88°
2026-05-05 11:26 49.99198 19.41173 16987 ft 383 kts 88°
2026-05-05 11:26 49.99367 19.43890 16645 ft 379 kts 88°
2026-05-05 11:26 49.99617 19.47941 16126 ft 373 kts 88°
2026-05-05 11:27 49.99916 19.52845 15460 ft 367 kts 88°
2026-05-05 11:27 50.00078 19.55518 15033 ft 366 kts 88°
2026-05-05 11:27 50.00315 19.59447 14436 ft 365 kts 88°
2026-05-05 11:27 50.00548 19.63320 13843 ft 363 kts 87°
2026-05-05 11:28 50.00784 19.67224 13199 ft 361 kts 88°
2026-05-05 11:28 50.01016 19.71099 12544 ft 359 kts 88°
2026-05-05 11:28 50.01244 19.74960 11905 ft 357 kts 87°
2026-05-05 11:28 50.01469 19.78800 11275 ft 354 kts 88°
2026-05-05 11:29 50.01689 19.82556 10576 ft 351 kts 88°
2026-05-05 11:29 50.01910 19.86327 9857 ft 347 kts 88°
2026-05-05 11:29 50.02129 19.90051 9084 ft 344 kts 88°
2026-05-05 11:29 50.02344 19.93752 8313 ft 340 kts 88°
2026-05-05 11:30 50.02549 19.97361 7571 ft 337 kts 88°
2026-05-05 11:30 50.02753 20.00974 6836 ft 333 kts 88°
2026-05-05 11:30 50.02951 20.04539 6107 ft 329 kts 88°
2026-05-05 11:30 50.03148 20.08054 5450 ft 322 kts 88°
2026-05-05 11:31 50.03344 20.11450 4951 ft 310 kts 86°
2026-05-05 11:31 50.04015 20.14570 4463 ft 305 kts 57°
2026-05-05 11:31 50.05589 20.16660 4054 ft 293 kts 22°
2026-05-05 11:31 50.07480 20.17258 3988 ft 271 kts 357°
2026-05-05 11:32 50.09222 20.16662 4011 ft 246 kts 332°
2026-05-05 11:32 50.10557 20.15152 4002 ft 231 kts 309°
2026-05-05 11:32 50.11362 20.13101 4005 ft 216 kts 286°
2026-05-05 11:32 50.11700 20.10875 4002 ft 206 kts 274°
2026-05-05 11:33 50.11782 20.08667 4007 ft 202 kts 265°
2026-05-05 11:33 50.11639 20.06491 3959 ft 200 kts 256°
2026-05-05 11:33 50.11350 20.04383 3734 ft 202 kts 254°
2026-05-05 11:33 50.11054 20.02231 3533 ft 203 kts 255°
2026-05-05 11:34 50.10752 20.00058 3337 ft 206 kts 254°
2026-05-05 11:34 50.10449 19.97863 3092 ft 209 kts 253°
2026-05-05 11:34 50.10144 19.95641 2807 ft 210 kts 253°
2026-05-05 11:34 50.09851 19.93470 2562 ft 196 kts 254°
2026-05-05 11:35 50.09580 19.91464 2305 ft 183 kts 252°
2026-05-05 11:35 50.09326 19.89607 2056 ft 167 kts 251°
2026-05-05 11:35 50.09096 19.87919 1830 ft 153 kts 252°
2026-05-05 11:35 50.08883 19.86379 1619 ft 138 kts 252°
2026-05-05 11:36 50.08677 19.84948 1461 ft 134 kts 252°
2026-05-05 11:36 50.08482 19.83552 1274 ft 133 kts 252°
2026-05-05 11:36 50.08319 19.82107 1139 ft 134 kts 251°
2026-05-05 11:36 50.08138 19.80649 955 ft 149 kts 255°
2026-05-05 11:37 50.07910 19.78999 1423 ft 162 kts 254°
2026-05-05 11:37 50.07623 19.77208 1990 ft 178 kts 250°
2026-05-05 11:37 50.07325 19.75323 2453 ft 188 kts 253°
2026-05-05 11:37 50.07022 19.73229 2724 ft 207 kts 253°
2026-05-05 11:38 50.06711 19.71014 3402 ft 210 kts 253°
2026-05-05 11:38 50.06399 19.68766 3926 ft 214 kts 253°
2026-05-05 11:38 50.06087 19.66504 4002 ft 213 kts 253°
2026-05-05 11:38 50.05776 19.64261 3979 ft 210 kts 253°
2026-05-05 11:39 50.05469 19.62041 3985 ft 210 kts 253°
2026-05-05 11:39 50.05160 19.59830 3990 ft 210 kts 253°
2026-05-05 11:39 50.04852 19.57645 3986 ft 210 kts 253°
2026-05-05 11:39 50.04538 19.55432 3978 ft 209 kts 252°
2026-05-05 11:40 50.04041 19.53354 3982 ft 202 kts 230°
2026-05-05 11:40 50.02917 19.52132 3993 ft 200 kts 195°
2026-05-05 11:40 50.01543 19.52250 3984 ft 204 kts 160°
2026-05-05 11:40 50.00472 19.53682 4069 ft 214 kts 125°
2026-05-05 11:41 50.00109 19.56011 4319 ft 229 kts 94°
2026-05-05 11:41 50.00267 19.58506 4566 ft 232 kts 87°
2026-05-05 11:41 50.00499 19.60964 4811 ft 233 kts 86°
2026-05-05 11:41 50.00736 19.63475 4950 ft 234 kts 86°
2026-05-05 11:42 50.00972 19.65978 4978 ft 234 kts 86°
2026-05-05 11:42 50.01202 19.68483 4993 ft 234 kts 86°
2026-05-05 11:42 50.01411 19.70951 4979 ft 233 kts 90°
2026-05-05 11:42 50.01526 19.73452 4973 ft 230 kts 91°
2026-05-05 11:43 50.01608 19.75954 4984 ft 231 kts 91°
2026-05-05 11:43 50.01683 19.78432 4974 ft 230 kts 91°
2026-05-05 11:43 50.01766 19.80928 4980 ft 231 kts 92°
2026-05-05 11:43 50.01854 19.83421 4978 ft 231 kts 91°
2026-05-05 11:44 50.01939 19.85883 4973 ft 231 kts 91°
2026-05-05 11:44 50.02022 19.88391 4980 ft 232 kts 92°
2026-05-05 11:44 50.02108 19.90912 4855 ft 232 kts 91°
2026-05-05 11:44 50.02199 19.93409 4655 ft 228 kts 91°
2026-05-05 11:45 50.02289 19.95803 4427 ft 221 kts 91°
2026-05-05 11:45 50.02425 19.98167 4178 ft 219 kts 79°
2026-05-05 11:45 50.03109 20.00255 3968 ft 218 kts 51°
2026-05-05 11:45 50.04351 20.01552 3723 ft 215 kts 19°
2026-05-05 11:46 50.05807 20.01742 3486 ft 211 kts 349°
2026-05-05 11:46 50.07138 20.00855 3245 ft 207 kts 321°
2026-05-05 11:46 50.08277 19.99551 3023 ft 203 kts 320°
2026-05-05 11:46 50.09395 19.98283 2974 ft 193 kts 317°
2026-05-05 11:47 50.10077 19.96717 2992 ft 161 kts 281°
2026-05-05 11:47 50.10071 19.95067 2767 ft 147 kts 250°
2026-05-05 11:47 50.09861 19.93554 2549 ft 140 kts 252°
2026-05-05 11:47 50.09667 19.92128 2370 ft 132 kts 252°
2026-05-05 11:48 50.09288 19.89373 2014 ft 131 kts 248°
2026-05-05 11:48 50.09091 19.87967 1833 ft 134 kts 250°
2026-05-05 11:48 50.08896 19.86557 1637 ft 132 kts 253°
2026-05-05 11:49 50.08699 19.85167 1509 ft 132 kts 250°
2026-05-05 11:49 50.08512 19.83784 1405 ft 130 kts 254°
2026-05-05 11:49 50.08324 19.82387 1185 ft 134 kts 251°
2026-05-05 11:49 50.08140 19.80982 900 ft 130 kts 250°
2026-05-05 11:50 50.07956 19.79650 803 ft 117 kts 251°
2026-05-05 11:50 50.07793 19.78626 801 ft 74 kts 258°
2026-05-05 11:50 50.07721 19.78131 799 ft 27 kts 240°
2026-05-05 11:50 50.07590 19.78086 800 ft 18 kts 181°
2026-05-05 11:51 50.07494 19.78091 800 ft 13 kts 157°
2026-05-05 11:51 50.07478 19.78213 800 ft 13 kts 75°
2026-05-05 11:51 50.07501 19.78348 800 ft 13 kts 76°
2026-05-05 11:51 50.07522 19.78487 800 ft 14 kts 78°
2026-05-05 11:52 50.07540 19.78635 800 ft 14 kts 79°
2026-05-05 11:52 50.07561 19.78788 800 ft 15 kts 77°
2026-05-05 11:52 50.07585 19.78947 800 ft 15 kts 78°
2026-05-05 11:52 50.07607 19.79109 800 ft 16 kts 78°
2026-05-05 11:53 50.07630 19.79279 800 ft 16 kts 78°
2026-05-05 11:53 50.07654 19.79453 800 ft 17 kts 77°
2026-05-05 11:53 50.07678 19.79623 800 ft 13 kts 79°
2026-05-05 11:53 50.07628 19.79709 800 ft 12 kts 168°
2026-05-05 11:54 50.07543 19.79733 800 ft 13 kts 168°
2026-05-05 11:54 50.07453 19.79764 800 ft 14 kts 168°
2026-05-05 11:54 50.07381 19.79778 800 ft 6 kts 200°
2026-05-05 11:54 50.07349 19.79723 800 ft 7 kts 214°
2026-05-05 11:55 50.07299 19.79732 800 ft 8 kts 166°
2026-05-05 11:55 50.07282 19.79738 800 ft 0 kts 168°
2026-05-05 11:57 50.07283 19.79738 800 ft 0 kts 168°